Location: Bauen
(46.9356°N, 8.5784°E)
Time: 18:35:14
(UTC+00:00)

STARLINK-1190 - Pass Details

Date: 18 February 2020
Orbit: 553 x 556 km, 53.0° (Epoch: 29 March)

Event Time Altitude Azimuth Distance (km) Brightness Sun altitude
Exits shadow 05:31:51 11° 303° (WNW) 1,760 5.6 -9.9°
Maximum altitude 05:35:37 42° 14° (NNE) 797 4.5 -9.3°
Drops below altitude 10° 05:39:33 10° 86° (E) 1,820 7.8 -8.6°
Sets 05:41:53 0° 93° (E) 2,711 9.6 -8.2°
